Temp_Advection
nan nan nan nan nan nan nan nan nan nan nan nan nan nan nan nan nan nan nan nan nan nan nan nan nan nan nan nan nan nan nan nan nan nan nan nan nan nan nan nan nan nan nan nan nan nan nan nan nan nan nan nan nan nan
nan 0 -0 -0 -0 -0 -0 -0 -0 0 0 0 0 -0 0 0 0 0 0 0 1 0 0 0 0 0 -0 -0 -0 -0 0 -0 0 -0 0 0 0 -0 0 -0 0 -0 -0 0 0 -0 -0 -0 -0 0 -0 -0 -0 nan
nan -0 -0 -0 -0 -0 -0 -0 -0 0 0 0 -0 -0 0 0 0 0 0 0 0 0 0 -0 -1 -0 0 0 0 0 0 0 0 0 -0 -0 0 -0 0 0 -0 -0 0 0 0 -0 -0 -0 0 0 0 -0 -0 nan
nan -0 -0 -0 -0 -0 -0 -0 -0 0 -0 -0 -0 0 0 0 0 0 0 0 0 0 0 -0 -0 -0 0 0 0 0 0 0 0 0 0 -0 -0 -0 0 -0 0 -0 0 0 -0 -0 -1 -1 -0 -0 -0 -0 -0 nan
nan -0 -0 -0 -0 -0 -0 -0 -0 0 0 0 0 0 0 0 0 0 0 0 0 0 -0 -0 -0 -0 0 0 0 0 1 0 0 0 0 -0 -0 -0 -0 -0 -0 -0 -0 -0 -0 -1 0 -0 -0 -0 -1 -1 -0 nan
nan -0 -0 -0 -0 -0 -0 -0 -0 0 0 0 0 0 0 0 0 0 -0 -0 0 0 0 -0 -0 -0 0 0 0 0 0 0 0 0 0 -0 -0 -0 0 -0 -3 -0 -0 0 0 -0 0 -0 0 1 -0 -1 -1 nan
nan -0 -0 -0 -0 -0 -0 -0 0 0 -0 0 0 0 0 0 0 0 0 0 0 0 0 0 -0 -0 0 0 0 0 0 0 0 0 0 0 0 1 -0 -1 -4 0 0 0 0 -0 -0 -0 -0 -0 -0 -1 -1 nan
nan -0 -0 -0 -0 -0 -0 0 0 0 0 0 0 0 0 0 0 0 0 0 0 0 0 0 -0 -0 0 0 0 0 0 0 0 0 0 0 0 0 -0 -1 0 0 -0 0 0 0 -0 -1 -0 -0 -1 -1 -1 nan
nan -0 -0 -0 -0 -0 -0 -0 0 0 0 0 0 -0 0 0 0 0 0 0 0 0 0 -0 -0 -0 0 0 0 0 0 0 0 0 -0 -0 -0 0 0 0 0 -0 -0 -0 -0 0 0 -0 -0 -0 -1 -1 -1 nan
nan -0 -0 -0 -0 -0 -0 -0 -0 0 0 0 0 -0 -0 0 0 0 0 0 0 0 0 -0 -0 0 0 0 0 0 0 0 0 -0 0 0 0 1 0 -0 -0 -0 -0 -0 -1 -0 -0 -0 -0 -0 -0 -0 -0 nan
nan -0 -0 -0 0 0 -0 -0 0 0 0 0 0 -0 -0 0 0 0 0 0 0 -0 0 0 0 -0 -0 -0 0 0 0 -0 0 -0 0 0 1 -0 -0 -0 -0 -0 -0 -0 -0 -0 -0 -0 -0 -0 -0 -0 -0 nan
nan -0 -0 -0 -0 0 0 -0 -0 -0 0 0 0 -0 0 0 -0 -0 0 -0 0 0 -0 0 0 -0 -0 -0 -0 0 -0 -0 0 0 0 1 0 0 0 -0 -0 -0 -0 -0 -0 -0 -0 -0 -0 -0 -0 -0 -0 nan
nan -0 -0 -0 -0 -0 0 -0 0 0 0 -0 0 0 0 0 -0 0 0 -0 -0 -0 -0 -0 -0 -0 0 0 -0 -0 -0 0 -0 0 1 0 0 0 -0 -0 -0 -0 -0 -0 -0 -0 -0 -0 0 -0 -0 -0 -0 nan
nan 0 -0 -0 -0 -0 -0 0 0 0 0 0 0 0 0 0 0 0 -0 0 0 0 0 -0 -0 0 0 0 -0 -0 0 -0 0 0 0 -0 -0 -0 -0 -0 -0 -0 -0 -0 -0 -0 -0 -0 -0 0 -0 -0 -0 nan
nan 0 -0 -0 -0 -0 -0 -0 0 0 0 0 0 0 0 -0 0 -0 -0 -0 0 0 -0 -0 -0 0 -0 -0 0 -0 0 0 -0 0 -0 0 -0 -0 -0 -0 -0 -0 -0 -0 -0 -0 -0 -0 -1 -1 -0 0 -0 nan
nan -0 -0 -0 -0 -0 -0 -0 -0 0 0 -0 -0 -0 0 -0 -0 0 0 0 -0 -0 -0 0 -0 0 0 -0 -0 -0 -0 0 0 -0 0 -0 -0 -0 -0 -0 -1 -0 -0 -0 -0 -0 -0 -0 -1 -1 -1 -0 -0 nan
nan -0 -0 -0 -0 -0 -0 -0 0 0 -0 -0 -0 0 0 -0 -0 0 0 -0 -0 -0 0 0 0 1 -0 -0 -0 -0 0 -0 -0 -0 -0 -0 -0 -0 -0 -0 -0 -0 -0 -0 -0 -0 -0 -0 -0 -1 -1 -0 -0 nan
nan 0 0 -0 -0 -0 -0 0 0 -0 -1 0 0 0 0 0 0 0 0 0 0 0 -0 0 0 -0 0 0 -0 0 -0 -1 -0 -0 -0 -0 -0 -0 0 -0 -0 -0 -0 -0 -0 -0 -0 -0 -0 -0 -0 -1 -1 nan
nan -0 -0 -0 -0 -0 0 -0 -0 -1 -0 0 0 0 0 0 0 0 0 0 0 0 -0 -0 -1 0 -0 -0 -0 -0 -0 -0 -1 -2 -1 -0 0 -0 -0 -0 -0 -0 -0 -0 -0 -0 -0 -0 0 -0 0 -0 -1 nan
nan -0 -0 -0 -0 0 0 -0 -0 -0 -0 -0 0 0 0 0 0 0 0 0 0 -0 -1 -0 -0 -0 -0 0 0 -0 0 0 0 -2 -2 -1 0 -0 -0 -0 -0 -0 -1 -1 -0 0 -0 -0 -0 0 0 1 0 nan
nan -0 -0 -0 -0 0 -0 -0 -0 -0 -0 -0 0 0 0 0 0 0 0 0 -0 -0 0 -0 0 0 -0 0 0 0 0 0 1 0 -1 -2 -0 0 -1 -0 -0 -0 -1 -1 -1 -1 -0 -0 -1 -0 -0 -0 0 nan
nan -0 -0 -0 0 -0 -0 -0 -0 -0 0 0 0 0 0 0 0 0 0 -0 -0 -0 -0 -0 -0 -0 -0 0 0 0 0 0 0 0 0 -0 -1 -0 -0 -0 -0 -0 -0 0 0 -0 -1 -0 -0 -0 -0 -0 -0 nan
nan -0 -0 -0 0 -0 -0 0 -0 -0 -0 0 0 -0 -0 0 -0 0 -0 0 0 -0 -0 -0 -0 0 -0 -0 0 0 0 -0 -0 0 0 -0 -0 0 -0 0 0 0 -1 -0 0 0 0 -0 -0 -0 -0 -0 -0 nan
nan -0 -0 -1 -1 -0 0 -0 -0 -0 -0 -1 -0 -0 -0 -0 -0 -0 0 0 -0 -0 0 0 -0 -0 -0 -0 -0 0 0 -0 -0 -0 0 -0 -1 -0 0 -0 0 1 0 -0 0 0 -0 0 -0 0 0 -0 -0 nan
nan -1 -1 -1 -0 -0 -1 -0 -1 -0 -0 0 0 -0 -0 -0 -0 0 -0 0 0 -0 -0 -0 -0 -0 -0 -1 -0 -0 0 0 -0 -1 0 1 -0 -1 -1 -0 -0 0 1 0 0 -0 -0 0 0 0 0 0 -0 nan
nan -1 -0 -0 -0 -0 -0 0 0 0 0 0 -0 -0 -0 -0 0 -0 -0 0 -0 -0 -0 -0 -0 -0 -0 0 -0 -0 0 0 0 -1 -0 0 0 0 -0 -1 -1 -1 0 0 0 0 -0 -0 0 0 -0 0 0 nan
nan -0 -0 0 0 0 0 -0 -0 -0 -0 -0 0 0 0 0 -0 -0 -0 0 -0 -0 -0 -0 -0 -0 -0 -0 0 -0 0 0 0 0 -0 0 0 0 0 0 -0 -1 -0 0 0 0 0 0 -0 -0 -0 -0 0 nan
nan -0 -0 -1 0 0 -0 -0 0 -0 -0 0 -0 0 -0 -0 -0 -0 0 0 -0 -0 -0 0 0 0 0 0 0 -0 -0 -0 -0 -0 -0 -0 -0 0 0 1 0 0 0 0 0 0 0 0 0 0 0 -0 -0 nan
nan 0 1 -0 -0 -0 0 -0 -0 -0 -0 0 -0 -0 -0 -0 -0 0 0 -0 -0 -0 -0 -0 -0 0 0 0 0 0 -0 -0 -0 -1 -2 -1 -1 -0 -0 0 0 0 0 0 0 0 0 0 0 0 0 0 0 nan
nan 0 0 0 0 -0 -0 0 0 0 -0 0 -0 -0 -0 -0 0 0 0 -0 -0 -0 -0 -0 -0 -0 -0 -0 -0 -0 0 0 0 0 -0 -1 -1 -1 -0 -0 0 0 0 0 -0 0 0 0 0 0 0 0 0 nan
nan 0 0 0 -0 -0 0 0 0 0 0 -0 0 -0 -0 -0 0 0 0 -0 -0 -0 -0 -0 0 -0 -0 -0 -1 -1 -1 -0 0 1 1 0 -0 -0 -0 -0 -0 0 0 0 0 -0 -0 -0 -0 -0 -0 -0 0 nan
nan 0 0 -0 -0 0 0 -0 -0 0 0 -0 -0 -0 -0 -0 -0 0 0 -0 -0 -0 -0 -0 -0 -0 -0 -0 -0 -0 -0 -1 -0 0 0 0 -0 -0 -0 -0 -0 0 0 0 0 0 0 0 0 0 0 0 0 nan
nan nan nan nan nan nan nan nan nan nan nan nan nan nan nan nan nan nan nan nan nan nan nan nan nan nan nan nan nan nan nan nan nan nan nan nan nan nan nan nan nan nan nan nan nan nan nan nan nan nan nan nan nan nan
Wind_Speed
7 7 3 1 3 4 5 7 9 9 11 13 10 13 21 15 15 20 22 19 21 7 8 9 8 6 6 5 3 5 3 3 4 3 3 3 3 3 1 2 4 4 4 4 3 1 4 5 2 3 7 19 21 22
12 6 3 3 3 4 5 5 7 8 9 11 11 9 9 22 13 16 20 14 22 10 5 9 14 17 15 11 7 9 3 5 7 2 1 1 2 0 3 2 1 3 5 3 5 3 2 4 3 14 12 17 16 19
11 9 7 6 5 6 6 6 7 9 10 12 12 11 9 11 17 17 14 13 12 10 10 15 17 19 20 19 19 9 8 10 8 7 5 2 2 3 3 4 1 3 3 2 3 4 3 19 24 19 14 18 19 21
13 11 10 8 8 8 4 4 4 7 8 10 12 13 13 11 11 17 16 13 12 3 3 4 5 9 10 16 23 24 19 11 8 10 5 2 2 5 2 1 3 6 4 3 4 11 12 16 18 21 19 25 24 26
13 11 9 9 8 7 7 7 2 2 5 7 10 10 10 9 9 9 8 9 10 10 2 3 7 10 11 11 13 17 22 17 9 6 2 3 4 3 0 0 4 8 5 4 5 19 12 22 23 19 22 24 23 25
16 14 9 7 5 6 6 7 4 3 2 7 7 9 10 10 10 10 5 9 13 14 4 2 4 5 7 9 10 14 18 17 7 4 3 3 5 4 2 3 17 7 7 12 10 17 24 25 29 22 18 20 22 23
19 17 16 12 8 3 2 4 7 6 6 5 10 9 12 13 14 7 2 3 16 15 1 3 4 2 4 7 9 8 10 5 5 4 5 5 6 8 3 4 27 16 15 12 16 17 13 3 9 22 20 21 23 24
18 17 16 14 10 7 2 1 2 3 4 5 7 9 10 9 8 5 4 2 8 10 5 2 3 1 6 4 4 6 5 5 4 3 2 4 3 4 4 8 12 11 8 6 7 8 12 15 14 16 17 17 17 17
18 17 16 14 11 6 5 3 4 5 5 6 10 11 8 3 1 1 3 6 6 8 4 3 3 3 6 2 3 4 5 2 3 3 4 7 3 6 6 2 6 6 4 7 10 10 9 10 11 12 12 12 14 17
19 17 18 17 13 6 3 6 7 11 9 11 10 3 5 5 6 6 4 4 4 4 5 3 4 2 7 4 3 4 4 2 2 4 6 4 3 6 4 5 5 6 7 8 9 6 9 9 10 11 11 12 14 16
19 17 18 19 16 12 13 12 15 15 13 14 5 2 8 10 6 3 1 1 2 2 4 2 7 2 7 3 4 7 2 1 2 4 5 3 3 2 3 2 2 2 3 4 4 4 6 8 10 12 12 12 14 15
18 17 17 18 18 14 13 7 18 23 15 11 4 9 8 3 2 2 1 2 2 3 1 1 2 4 2 5 3 5 3 2 5 4 2 3 2 4 3 2 2 2 3 4 6 8 9 10 11 13 14 15 15 15
19 16 16 17 16 13 10 9 13 19 18 14 4 4 4 2 2 5 4 3 2 2 4 1 1 1 3 5 4 3 5 5 8 1 3 2 3 3 3 3 4 6 9 11 12 13 14 15 15 16 18 18 19 19
19 16 13 15 15 11 5 4 4 11 8 4 6 3 4 2 4 3 3 3 2 1 1 2 2 1 2 2 1 3 1 2 2 1 3 2 3 3 5 7 10 12 13 16 16 18 18 18 19 19 19 20 23 24
18 16 12 14 14 12 8 4 7 11 4 3 2 4 2 3 3 5 6 4 2 1 1 0 3 2 2 3 3 2 2 3 1 2 1 3 6 9 12 14 16 18 19 20 19 20 21 22 23 26 24 24 24 25
17 13 13 15 14 12 9 6 4 5 2 1 3 3 4 3 2 3 4 2 1 2 1 2 1 1 3 2 2 1 2 1 0 1 5 11 14 16 19 20 21 21 21 22 22 23 25 26 27 29 30 28 26 26
18 12 14 13 14 11 8 4 2 2 3 3 2 5 4 5 5 3 1 0 2 1 2 1 1 6 2 2 1 1 2 0 3 13 17 16 19 22 22 22 21 21 23 23 24 25 26 26 27 29 31 30 28 28
20 16 13 13 12 11 5 2 1 2 4 4 3 4 4 6 6 4 2 2 2 2 1 2 2 3 3 2 3 0 3 14 17 19 22 22 22 21 19 21 22 22 23 24 25 27 27 27 28 29 29 28 27 27
20 17 13 11 10 6 2 1 1 4 3 4 6 6 5 6 7 5 4 4 5 4 4 2 4 2 2 1 2 10 17 19 24 27 27 24 20 21 21 20 21 21 22 24 25 27 27 26 28 29 28 26 28 27
15 15 10 11 8 3 1 2 2 3 3 4 5 6 5 4 4 4 3 3 2 1 3 2 2 2 2 8 13 17 19 19 20 26 31 28 27 26 25 24 23 23 23 25 27 26 27 29 30 29 25 25 25 28
11 8 12 8 3 2 1 2 3 4 5 3 6 4 2 4 2 2 1 3 2 2 1 1 1 8 11 12 13 15 17 16 18 20 26 33 30 30 30 27 24 24 25 28 29 30 30 32 29 26 27 27 27 25
12 11 6 3 2 1 3 4 4 4 2 4 4 2 3 2 2 2 1 2 3 3 2 5 10 13 14 13 13 13 14 16 18 21 21 22 26 27 26 25 24 25 26 28 27 30 32 29 27 26 28 30 28 27
9 4 2 1 1 2 2 2 1 2 3 1 2 2 2 1 2 1 2 2 3 3 7 10 11 12 13 11 10 9 12 16 19 20 21 21 22 23 25 23 23 26 28 27 29 29 28 26 25 26 25 27 28 28
4 1 3 3 6 1 2 2 2 2 2 3 2 1 2 1 2 1 1 2 5 2 9 11 13 14 11 11 12 13 16 18 21 22 21 23 26 25 23 24 25 25 25 32 30 28 28 29 26 30 30 27 25 24
3 7 5 5 6 3 5 5 5 4 1 1 2 2 2 2 2 1 2 3 4 5 11 13 13 13 15 17 17 18 17 19 21 24 22 23 23 25 24 24 25 25 30 30 30 31 30 30 32 30 27 26 26 25
5 7 4 4 4 3 0 2 2 1 1 1 2 1 1 2 2 3 3 4 1 9 13 16 18 18 15 16 19 21 21 20 20 23 24 22 20 22 24 27 30 33 31 30 30 31 34 29 28 26 26 23 23 24
4 3 3 4 3 3 1 0 0 2 1 2 2 1 2 1 3 2 4 2 5 10 13 14 15 14 17 18 16 18 19 19 19 22 22 18 17 18 20 25 29 35 34 33 29 25 26 26 27 25 26 27 25 24
3 4 1 10 2 1 2 1 1 2 2 1 1 0 5 5 3 3 3 0 5 8 12 14 13 13 15 14 15 18 19 18 19 20 20 18 22 24 28 28 28 33 29 23 21 21 21 22 23 26 25 25 23 19
2 7 8 3 2 2 2 2 2 1 0 1 2 2 2 2 2 3 3 2 5 8 10 12 14 13 13 13 12 15 18 21 25 28 29 29 32 30 27 29 34 36 27 22 18 17 17 17 17 17 17 16 15 14
3 8 3 2 0 2 0 1 1 2 4 4 4 4 4 3 4 6 6 5 6 7 10 14 16 18 19 20 19 16 17 19 21 23 25 27 31 32 31 31 34 33 25 21 20 18 15 14 13 12 13 13 13 13
6 4 3 3 3 2 3 7 9 7 5 4 6 7 6 4 4 6 7 5 6 10 12 12 12 15 17 20 21 25 25 22 22 21 18 21 27 31 27 27 30 29 23 20 19 18 17 16 16 15 15 15 14 14
3 1 3 3 2 4 6 4 3 1 1 1 1 2 2 2 2 2 3 4 6 9 13 14 15 15 15 17 17 19 20 23 23 22 22 24 26 26 21 23 26 26 21 19 17 16 16 16 17 17 17 18 18 18
4 3 3 4 4 2 4 8 3 2 1 1 1 2 2 2 2 2 4 5 8 13 16 14 14 14 13 17 18 19 19 20 19 19 17 18 20 21 15 19 22 22 21 20 18 17 17 17 18 19 19 20 20 20
Wind_Direction
128 120 163 235 270 265 259 253 248 244 227 228 238 228 217 206 207 216 225 221 215 204 209 210 215 187 165 179 145 153 109 199 170 208 181 221 200 226 207 235 182 181 178 215 183 308 267 218 318 63 290 298 305 310
66 64 35 3 339 315 285 267 258 250 237 225 229 224 209 200 197 210 218 210 225 228 235 210 233 246 239 240 198 184 203 162 190 167 196 106 216 109 194 243 176 248 203 207 198 220 111 157 254 308 300 302 310 307
48 39 26 7 343 315 298 287 264 248 241 231 228 230 222 217 208 204 206 214 212 232 261 264 261 257 248 246 239 217 221 208 198 191 164 183 214 125 190 241 303 258 230 216 51 285 302 316 305 307 303 317 313 307
44 41 37 31 21 13 1 329 282 249 232 221 221 223 225 226 215 209 205 201 216 166 233 258 255 256 255 243 233 233 236 221 215 207 183 155 182 190 223 251 211 211 153 197 267 284 303 294 304 307 296 306 303 307
27 28 31 28 23 23 25 18 13 206 210 213 204 204 204 205 199 200 204 211 224 206 216 268 285 282 258 248 240 234 229 227 212 188 175 195 169 164 133 286 257 186 184 170 247 289 286 284 305 305 304 305 304 309
22 13 2 359 11 33 29 33 69 128 183 186 186 194 190 180 181 169 180 227 214 228 248 329 275 258 241 229 217 209 210 202 187 173 173 191 170 160 164 220 258 202 246 267 259 282 290 296 303 297 306 313 312 311
15 16 14 15 2 357 36 56 56 105 71 163 156 155 158 166 175 177 165 181 196 208 210 307 291 284 205 171 175 193 214 203 180 176 199 188 179 188 152 227 266 302 292 280 281 286 296 293 303 303 306 306 305 308
7 6 5 5 5 6 272 201 137 119 117 117 120 137 141 153 166 199 213 194 150 189 191 168 268 270 173 160 153 169 159 189 197 212 192 188 164 211 243 247 258 276 295 277 268 289 293 303 309 310 314 318 322 324
5 4 3 1 358 355 33 345 211 172 160 154 152 145 133 144 160 139 153 186 202 206 205 163 158 233 165 135 122 135 161 179 210 216 231 159 178 222 243 257 262 292 294 283 294 304 300 316 326 326 331 331 339 343
6 6 5 2 360 344 304 262 219 194 173 168 152 153 151 159 140 127 145 188 209 229 217 203 188 209 163 158 139 147 191 203 183 234 158 216 240 237 268 277 284 301 307 314 326 319 327 342 349 351 347 341 338 338
1 3 4 1 358 350 320 272 208 183 182 169 176 149 142 145 157 174 236 164 283 330 201 262 210 158 190 135 179 202 186 203 171 244 168 223 254 353 23 13 354 344 343 355 360 351 341 335 334 332 331 332 336 337
355 355 359 4 0 7 36 62 172 180 179 179 171 131 143 192 108 114 268 328 221 244 325 187 210 226 205 194 140 184 190 153 242 145 153 247 276 31 48 56 44 19 352 336 327 318 312 309 308 309 314 319 323 328
353 351 352 0 4 6 87 81 181 186 184 162 170 157 158 176 54 149 215 281 279 346 2 26 300 241 208 204 228 186 221 220 126 150 224 225 2 32 14 355 332 328 324 317 312 308 304 302 300 301 303 306 306 306
350 349 347 353 357 356 349 129 159 201 159 181 167 192 176 278 239 187 174 171 111 122 35 12 291 208 215 212 249 251 204 144 210 277 239 270 354 337 335 328 320 318 316 312 310 307 305 303 301 301 302 303 302 304
347 345 342 344 349 346 337 289 235 217 253 215 188 207 169 131 101 117 117 121 71 23 1 49 282 239 260 255 209 280 228 245 85 226 249 336 327 320 319 316 313 312 311 309 309 307 305 303 302 301 302 300 301 301
344 340 341 339 340 339 332 313 264 224 227 122 84 95 129 103 112 121 126 144 337 330 259 221 268 232 259 287 311 338 320 231 143 20 327 319 314 313 315 312 309 308 306 305 305 304 302 303 304 301 300 300 301 297
346 333 330 333 337 334 326 308 227 200 113 86 68 105 120 100 129 144 123 33 335 138 155 68 132 216 332 3 345 20 170 350 336 313 314 313 310 313 312 307 307 306 305 305 305 305 303 302 300 297 298 301 298 294
338 332 328 328 332 331 310 264 207 102 78 89 124 106 100 114 114 112 98 58 88 112 120 175 115 74 176 187 274 227 346 312 311 313 313 316 319 317 313 310 308 308 307 307 307 306 306 307 305 303 302 302 298 293
328 325 329 327 332 327 299 6 40 96 92 101 114 117 111 113 103 105 113 97 88 99 125 118 74 174 235 260 276 306 316 317 315 314 313 318 322 321 317 314 309 307 307 309 312 310 307 307 307 307 306 303 297 295
319 318 321 327 323 299 273 50 68 89 114 138 139 135 133 131 134 98 95 127 136 124 68 75 181 186 282 297 306 304 305 309 307 310 315 322 325 323 319 318 313 313 311 314 316 316 314 311 310 312 307 302 298 298
319 323 317 314 292 257 91 102 76 87 122 128 137 139 125 139 145 155 139 142 118 58 99 119 304 311 306 311 312 305 307 307 306 304 308 312 320 319 318 317 314 310 311 315 317 317 316 313 313 310 306 301 301 299
325 318 309 292 253 127 83 60 95 108 116 130 137 130 131 127 109 88 85 85 83 76 36 335 329 326 324 326 317 312 311 309 309 308 309 305 309 317 319 321 317 314 315 316 317 317 314 314 312 311 309 307 306 300
328 322 312 315 193 43 73 91 92 75 96 120 128 68 31 58 43 95 76 99 124 69 7 344 332 325 321 324 320 319 320 316 316 319 322 321 318 321 322 323 322 319 318 321 323 316 314 313 310 309 308 304 302 299
347 344 15 41 23 85 81 62 65 83 100 40 59 18 325 4 352 81 178 156 152 19 348 344 338 334 337 344 347 345 340 331 328 329 337 330 325 326 326 325 327 327 327 326 323 321 320 319 312 311 312 308 304 300
9 11 17 9 22 22 28 6 352 45 73 327 69 341 314 354 60 50 211 167 176 334 346 347 346 347 342 342 344 346 349 339 332 329 344 334 329 328 329 329 328 331 337 331 326 321 320 316 311 312 312 308 304 302
66 16 40 5 347 43 202 21 356 226 130 22 237 337 7 83 74 240 222 155 42 356 353 348 343 342 347 346 339 342 343 339 332 329 340 340 334 330 328 329 331 335 344 333 325 315 312 314 315 316 316 316 312 306
51 328 17 12 326 317 351 4 96 109 117 199 244 61 66 85 253 245 164 141 8 360 353 348 344 340 337 339 341 340 340 338 334 332 339 344 348 347 342 336 331 335 337 320 316 319 319 319 320 323 321 319 319 318
62 21 27 322 305 310 170 23 138 204 241 159 152 268 175 193 231 165 162 53 358 358 357 351 346 341 341 338 339 341 344 343 340 341 347 0 5 1 355 348 338 342 331 331 332 329 326 326 328 323 322 323 328 332
352 341 335 315 302 265 251 203 222 156 213 212 176 256 270 247 221 203 216 302 339 350 339 348 356 350 346 347 346 353 353 354 353 352 352 351 353 359 356 349 347 344 342 340 344 341 339 337 331 333 336 338 342 347
327 342 312 303 319 267 291 276 283 276 273 258 272 281 276 266 250 243 249 275 316 329 348 351 348 349 352 352 351 0 5 1 360 354 341 343 347 353 357 348 344 347 348 348 348 349 348 348 350 351 356 0 6 10
309 317 299 266 265 272 290 301 298 289 269 264 257 257 267 294 283 255 252 264 321 345 338 333 350 350 352 357 354 350 351 359 358 351 346 350 356 355 344 340 348 352 355 358 360 1 6 11 15 18 22 25 26 27
306 309 334 307 297 310 323 333 311 304 296 293 295 304 301 289 283 272 286 263 296 317 342 342 345 351 351 352 351 347 343 345 347 348 353 357 351 345 341 349 356 2 6 9 13 17 24 29 33 36 39 42 44 46
307 326 318 300 304 331 335 336 5 354 297 321 332 338 323 311 307 327 326 319 324 335 340 342 343 344 345 346 348 348 348 348 349 350 353 355 354 349 348 359 359 8 17 25 31 36 41 47 51 52 54 55 56 58
Height
1424 1427 1429 1431 1431 1431 1432 1433 1434 1436 1437 1439 1440 1443 1447 1451 1455 1458 1461 1465 1468 1470 1472 1473 1474 1477 1478 1479 1482 1485 1487 1486 1487 1489 1495 1491 1489 1487 1488 1485 1483 1484 1484 1483 1483 1484 1481 1472 1472 1478 1477 1472 1469 1466
1429 1431 1432 1432 1432 1432 1432 1432 1433 1434 1436 1438 1440 1441 1443 1448 1452 1455 1459 1461 1464 1467 1469 1470 1472 1475 1477 1479 1480 1481 1479 1482 1484 1485 1490 1490 1490 1495 1491 1491 1480 1487 1477 1477 1475 1470 1467 1468 1470 1471 1470 1468 1465 1463
1435 1434 1434 1433 1432 1432 1431 1431 1431 1432 1434 1436 1439 1440 1442 1445 1449 1453 1456 1459 1463 1464 1467 1467 1467 1471 1472 1472 1477 1478 1478 1479 1478 1479 1483 1487 1491 1488 1491 1488 1484 1475 1473 1476 1472 1465 1466 1468 1467 1467 1467 1464 1462 1459
1440 1438 1437 1435 1434 1432 1431 1431 1430 1431 1432 1435 1438 1440 1442 1445 1447 1450 1452 1456 1461 1464 1465 1463 1463 1465 1465 1466 1469 1471 1473 1473 1475 1478 1479 1480 1485 1481 1486 1482 1483 1472 1473 1474 1471 1464 1466 1465 1464 1464 1462 1460 1456 1453
1442 1440 1439 1437 1435 1434 1432 1431 1430 1430 1431 1433 1435 1438 1441 1444 1446 1449 1452 1454 1458 1464 1462 1461 1461 1461 1461 1461 1462 1464 1468 1469 1471 1475 1474 1478 1477 1481 1482 1483 1476 1462 1467 1471 1469 1461 1464 1460 1459 1458 1456 1453 1450 1446
1445 1442 1439 1438 1436 1435 1434 1433 1432 1432 1432 1433 1435 1438 1440 1443 1446 1450 1451 1454 1456 1459 1461 1461 1459 1456 1456 1457 1459 1461 1463 1466 1467 1468 1470 1471 1472 1474 1482 1484 1453 1456 1459 1460 1459 1459 1456 1454 1454 1452 1450 1447 1445 1442
1448 1445 1442 1439 1437 1436 1436 1435 1435 1434 1434 1434 1436 1438 1440 1444 1446 1449 1450 1451 1453 1457 1459 1461 1456 1455 1454 1456 1458 1460 1462 1464 1466 1467 1468 1469 1470 1472 1478 1474 1442 1453 1454 1455 1455 1454 1451 1450 1450 1450 1446 1444 1441 1438
1451 1447 1443 1441 1438 1437 1436 1436 1436 1437 1437 1437 1438 1440 1442 1444 1447 1449 1449 1451 1454 1457 1458 1459 1456 1455 1453 1455 1458 1459 1460 1463 1464 1464 1465 1465 1467 1467 1466 1449 1449 1449 1450 1451 1450 1450 1449 1447 1445 1445 1443 1440 1437 1435
1452 1448 1445 1442 1439 1437 1437 1437 1437 1438 1439 1439 1441 1443 1445 1447 1448 1448 1450 1451 1453 1458 1454 1454 1457 1457 1453 1455 1456 1458 1460 1463 1463 1462 1462 1462 1463 1459 1448 1447 1447 1448 1448 1448 1448 1448 1445 1444 1442 1442 1440 1438 1436 1432
1452 1449 1446 1442 1439 1437 1436 1436 1436 1438 1440 1440 1443 1444 1445 1447 1448 1450 1451 1452 1452 1450 1450 1449 1448 1452 1453 1455 1456 1459 1459 1461 1462 1457 1456 1456 1452 1446 1446 1447 1447 1447 1446 1446 1445 1444 1442 1441 1440 1440 1439 1438 1435 1432
1453 1450 1446 1442 1439 1436 1432 1430 1432 1436 1439 1441 1443 1444 1446 1448 1449 1450 1450 1451 1450 1450 1447 1447 1447 1448 1450 1453 1454 1455 1457 1459 1464 1453 1453 1451 1448 1447 1447 1447 1447 1446 1446 1445 1444 1443 1442 1441 1440 1439 1437 1435 1432 1430
1453 1450 1447 1443 1439 1435 1429 1426 1430 1434 1437 1441 1443 1445 1447 1448 1449 1452 1452 1452 1450 1449 1447 1447 1448 1449 1449 1449 1450 1453 1454 1454 1453 1447 1450 1452 1451 1448 1447 1447 1447 1447 1446 1445 1444 1443 1442 1440 1439 1437 1435 1432 1430 1428
1454 1450 1447 1444 1441 1438 1436 1434 1435 1435 1437 1441 1443 1444 1445 1448 1453 1456 1462 1455 1452 1447 1447 1447 1448 1448 1448 1449 1448 1448 1445 1445 1444 1447 1444 1453 1449 1449 1449 1448 1448 1446 1445 1444 1442 1441 1439 1437 1436 1433 1431 1429 1427 1425
1453 1450 1448 1445 1443 1440 1439 1438 1437 1438 1438 1439 1440 1442 1444 1452 1448 1446 1447 1447 1448 1447 1447 1447 1447 1447 1446 1447 1444 1441 1438 1441 1442 1451 1453 1452 1450 1449 1448 1447 1446 1444 1442 1440 1438 1437 1435 1433 1430 1429 1427 1424 1421 1419
1452 1449 1447 1445 1442 1440 1438 1437 1437 1438 1438 1437 1437 1439 1442 1443 1443 1444 1445 1446 1447 1447 1447 1447 1447 1447 1446 1444 1442 1440 1439 1439 1447 1454 1452 1450 1450 1449 1447 1445 1443 1441 1439 1436 1434 1432 1430 1427 1424 1421 1421 1418 1416 1413
1451 1449 1447 1444 1442 1439 1437 1436 1436 1436 1435 1436 1438 1441 1442 1443 1445 1445 1445 1446 1446 1446 1446 1447 1446 1446 1447 1444 1443 1442 1444 1448 1451 1451 1451 1449 1448 1446 1444 1441 1439 1436 1434 1431 1429 1426 1424 1421 1418 1414 1412 1410 1409 1406
1451 1449 1446 1443 1441 1438 1436 1436 1435 1434 1435 1437 1439 1440 1441 1441 1443 1445 1445 1445 1445 1446 1446 1447 1450 1447 1449 1449 1448 1450 1452 1450 1451 1450 1448 1447 1444 1441 1439 1436 1433 1430 1427 1425 1422 1420 1417 1414 1411 1407 1403 1402 1399 1397
1449 1446 1444 1441 1439 1437 1435 1434 1434 1434 1437 1439 1440 1441 1441 1442 1443 1444 1445 1445 1446 1445 1446 1449 1449 1453 1455 1457 1456 1451 1451 1450 1448 1446 1443 1441 1438 1436 1433 1429 1427 1424 1421 1418 1416 1412 1409 1406 1402 1399 1395 1393 1390 1388
1447 1443 1442 1440 1438 1437 1435 1435 1435 1435 1439 1440 1441 1441 1442 1443 1444 1445 1445 1446 1446 1446 1447 1448 1454 1458 1454 1451 1451 1450 1448 1447 1443 1439 1436 1435 1433 1430 1427 1424 1421 1418 1415 1412 1408 1405 1401 1398 1395 1391 1387 1384 1380 1379
1444 1441 1439 1438 1437 1436 1435 1436 1436 1436 1439 1441 1442 1443 1444 1444 1445 1445 1446 1446 1446 1447 1447 1451 1452 1451 1451 1451 1449 1447 1445 1443 1440 1435 1430 1428 1426 1424 1421 1418 1414 1411 1408 1405 1401 1398 1393 1389 1386 1383 1380 1376 1373 1370
1441 1439 1437 1436 1435 1435 1435 1435 1436 1438 1440 1441 1442 1443 1444 1445 1445 1446 1446 1446 1447 1448 1449 1450 1450 1450 1449 1447 1445 1443 1441 1439 1436 1434 1428 1421 1419 1417 1413 1411 1408 1405 1401 1397 1393 1389 1386 1382 1378 1375 1371 1368 1366 1363
1439 1436 1435 1434 1434 1434 1436 1437 1438 1439 1441 1441 1443 1443 1444 1445 1445 1446 1446 1446 1448 1449 1449 1449 1448 1446 1444 1443 1441 1439 1437 1434 1432 1429 1426 1422 1416 1412 1408 1405 1402 1398 1395 1391 1387 1383 1378 1374 1371 1367 1363 1360 1358 1355
1437 1435 1434 1434 1434 1435 1440 1439 1439 1440 1441 1442 1443 1443 1445 1445 1445 1447 1446 1447 1448 1449 1448 1447 1446 1444 1442 1440 1439 1437 1434 1431 1427 1424 1420 1416 1412 1408 1404 1400 1397 1393 1388 1384 1381 1376 1371 1368 1365 1361 1357 1354 1351 1347
1436 1435 1435 1435 1437 1439 1440 1439 1440 1441 1442 1443 1446 1447 1446 1445 1446 1446 1448 1446 1448 1448 1448 1446 1444 1441 1440 1438 1435 1433 1430 1426 1422 1419 1416 1411 1406 1402 1399 1395 1391 1388 1384 1378 1373 1368 1364 1360 1358 1354 1350 1346 1343 1339
1439 1442 1442 1442 1442 1441 1443 1443 1443 1443 1448 1449 1449 1447 1446 1446 1449 1451 1449 1446 1447 1447 1445 1443 1441 1439 1436 1433 1431 1429 1427 1423 1419 1414 1412 1408 1403 1398 1394 1391 1387 1383 1378 1371 1366 1362 1358 1354 1350 1346 1342 1339 1335 1332
1445 1448 1447 1447 1447 1446 1448 1448 1449 1449 1449 1449 1449 1447 1447 1448 1451 1450 1445 1445 1445 1445 1443 1440 1438 1435 1434 1432 1428 1425 1423 1420 1416 1412 1408 1404 1400 1396 1391 1385 1379 1374 1372 1366 1361 1356 1351 1347 1343 1339 1335 1332 1329 1326
1451 1451 1450 1450 1449 1448 1448 1448 1447 1447 1450 1449 1448 1448 1450 1452 1453 1445 1444 1444 1444 1443 1442 1439 1437 1434 1432 1429 1427 1424 1421 1417 1414 1410 1405 1401 1398 1394 1389 1384 1377 1371 1365 1362 1356 1351 1346 1342 1338 1334 1330 1326 1322 1319
1452 1452 1454 1451 1449 1448 1448 1448 1449 1449 1447 1447 1448 1450 1451 1448 1446 1444 1444 1444 1443 1442 1440 1438 1436 1433 1430 1428 1425 1421 1418 1414 1411 1407 1403 1400 1395 1390 1385 1381 1376 1369 1363 1356 1352 1347 1343 1338 1334 1330 1325 1321 1317 1313
1453 1452 1451 1449 1448 1447 1447 1447 1446 1446 1447 1446 1447 1445 1443 1443 1443 1443 1443 1443 1442 1441 1440 1437 1435 1432 1429 1427 1424 1420 1416 1411 1406 1401 1397 1393 1388 1385 1382 1376 1370 1364 1358 1353 1349 1345 1341 1337 1332 1328 1324 1320 1316 1312
1453 1452 1450 1449 1449 1448 1447 1447 1447 1446 1445 1445 1445 1444 1443 1442 1442 1442 1442 1442 1441 1440 1438 1436 1433 1430 1427 1423 1420 1418 1416 1412 1408 1404 1398 1394 1389 1384 1378 1373 1368 1362 1356 1351 1347 1343 1339 1336 1332 1328 1324 1321 1317 1314
1453 1452 1450 1449 1447 1446 1446 1446 1444 1443 1443 1442 1442 1443 1442 1441 1440 1440 1440 1440 1440 1439 1437 1435 1433 1429 1426 1422 1418 1414 1410 1409 1406 1403 1399 1395 1389 1384 1380 1375 1369 1362 1356 1352 1347 1344 1340 1336 1332 1329 1326 1323 1319 1316
1453 1451 1451 1449 1447 1446 1445 1444 1443 1442 1442 1442 1442 1441 1441 1441 1440 1440 1439 1439 1439 1438 1436 1433 1430 1427 1425 1422 1420 1416 1413 1408 1404 1400 1395 1392 1389 1386 1380 1375 1370 1364 1358 1354 1350 1346 1343 1339 1336 1333 1330 1327 1324 1321
1452 1451 1450 1449 1446 1445 1445 1444 1443 1442 1442 1441 1441 1441 1441 1441 1440 1440 1439 1438 1437 1435 1433 1431 1429 1426 1424 1421 1418 1415 1411 1407 1404 1400 1396 1392 1389 1385 1379 1376 1371 1367 1362 1358 1354 1350 1347 1344 1341 1339 1336 1333 1331 1328